Theta_e
317 317 317 319 320 320 320 320 320 320 320 320 320 320 320 320 320 321 322 322 322 323 324 324 325 326 326 326 326 326 326 326 326 326 326 326 326 325 325 325 325 325 325 325 326 325 325 324 324 324 324 325 323 319 317 317 318 319 318 318 317 308 298 296 298 298 298 298 299 299 298 298 298 297 296 294 294 295 296 297 297 296 295 293 292
316 316 317 318 318 319 320 321 321 321 321 321 321 320 320 320 321 322 323 322 323 324 324 325 325 326 326 326 326 326 326 326 326 326 326 325 325 325 325 325 325 325 325 324 325 324 323 324 325 324 323 323 321 317 317 318 318 319 317 317 317 309 299 296 297 296 297 298 298 299 299 299 298 297 296 295 296 297 298 298 298 297 295 292 291
315 316 316 317 317 318 320 320 321 321 321 321 320 320 320 321 322 323 323 323 324 324 325 325 326 326 326 325 325 325 326 326 326 326 325 325 325 324 324 324 324 324 322 320 320 321 322 324 325 325 324 323 321 319 318 319 318 318 316 315 317 310 299 295 296 296 296 297 298 299 299 299 297 296 297 298 299 300 299 299 299 297 294 292 291
314 315 315 316 316 317 318 319 319 320 319 319 319 319 320 320 321 321 321 322 322 322 323 325 326 326 325 325 325 325 325 325 325 325 324 324 324 323 322 321 322 323 323 321 321 322 324 324 324 326 325 321 320 320 319 318 318 318 316 315 315 308 298 295 295 296 296 297 298 299 299 298 297 297 299 301 301 301 301 300 299 296 293 292 291
314 314 314 314 314 315 315 316 316 317 316 316 316 316 316 315 315 316 316 318 319 320 323 326 326 325 324 324 324 323 323 324 325 325 324 324 324 323 323 322 321 322 324 325 324 323 324 325 324 326 324 319 318 319 320 319 319 318 317 316 314 306 296 294 295 295 296 297 297 299 299 298 299 300 301 301 301 301 301 301 298 295 292 292 291
314 314 314 313 313 313 313 313 313 313 313 312 312 311 311 311 311 312 313 315 317 320 322 322 322 322 322 322 323 323 322 323 324 324 323 323 323 324 325 326 325 324 323 323 323 322 322 322 322 322 321 320 319 319 320 320 318 318 316 315 314 305 295 293 295 295 296 297 297 299 299 299 301 301 301 302 302 301 301 300 297 293 292 292 291
312 312 312 312 312 312 312 312 311 311 311 310 310 310 310 310 310 310 311 313 315 316 317 317 318 320 321 322 322 321 320 322 324 324 323 322 321 322 324 326 326 324 322 321 320 319 319 319 320 320 320 321 321 320 320 318 317 316 315 315 313 303 294 293 295 295 296 297 297 298 299 301 301 301 301 302 301 302 301 299 295 292 292 292 291
311 311 311 311 311 311 311 311 311 311 310 310 310 310 310 310 309 310 310 311 311 312 313 314 316 317 319 321 321 321 321 323 324 323 322 322 320 321 323 324 323 321 319 319 319 319 320 321 321 321 320 320 320 320 320 318 316 315 313 314 310 300 293 294 295 295 296 297 297 298 300 301 301 301 302 301 302 302 300 296 293 292 292 292 291
311 311 311 311 311 311 311 311 310 310 310 310 310 310 310 309 309 310 310 310 310 311 311 311 312 314 316 318 321 323 324 325 325 322 321 322 322 324 324 321 319 318 318 319 321 322 323 323 322 320 319 319 319 319 318 318 316 313 311 312 308 297 293 294 294 295 296 296 297 299 300 300 301 302 301 302 302 301 297 295 294 293 291 291 291
311 311 311 311 311 311 311 311 311 310 311 311 310 310 310 310 310 310 310 311 311 310 310 311 313 317 318 318 319 321 321 321 322 322 322 323 324 325 322 319 317 318 320 322 323 322 322 322 321 320 318 318 318 319 318 318 316 311 309 309 305 295 293 294 294 295 296 296 298 299 300 301 301 301 302 302 302 300 297 295 293 292 291 291 291
311 311 311 311 311 311 311 311 311 311 311 311 311 311 311 311 311 311 311 311 311 311 311 311 314 319 321 321 321 322 321 320 321 322 322 322 322 321 320 319 319 319 320 322 321 321 321 321 320 319 318 317 318 319 318 318 314 308 304 304 299 294 294 294 294 295 296 296 298 299 300 301 301 301 302 302 301 300 298 295 293 292 292 291 291
311 311 310 311 311 310 311 311 311 311 311 311 310 310 310 310 310 310 310 310 311 311 311 311 312 315 318 318 318 319 319 319 321 321 320 319 319 320 320 320 320 320 321 321 320 320 321 320 319 319 317 317 317 318 318 317 313 306 300 298 295 293 293 293 294 294 295 296 297 298 299 300 300 301 301 301 301 300 296 293 293 294 293 293 292
312 311 311 310 310 310 310 310 310 310 310 310 310 310 310 310 310 310 310 310 311 311 311 311 312 312 313 314 314 314 314 314 316 318 318 316 317 318 320 320 320 320 320 320 320 320 320 320 320 319 317 316 316 316 316 316 312 304 298 295 294 293 293 292 293 293 294 295 296 297 298 299 300 301 301 301 300 297 294 293 295 295 294 294 293
313 312 312 311 310 310 310 310 310 310 310 311 311 311 311 311 311 311 311 311 311 311 310 311 311 311 311 311 311 311 312 312 313 314 315 315 315 317 318 319 320 320 319 320 321 321 320 320 320 319 317 315 314 313 313 313 311 303 296 294 294 293 292 292 292 293 293 293 294 295 297 299 300 301 301 300 298 295 293 294 296 296 295 294 294
313 314 313 313 312 311 310 310 310 310 310 310 311 311 311 311 311 311 311 311 311 310 310 310 310 310 309 308 308 309 312 313 313 314 316 317 318 318 317 318 319 319 319 320 321 320 319 320 319 317 314 313 313 312 312 312 310 302 295 294 294 293 292 292 292 292 292 293 293 294 296 298 299 300 299 298 297 294 294 295 295 295 295 295 294
313 314 314 313 313 312 311 311 310 310 310 310 310 311 311 311 311 311 311 311 311 310 310 310 310 309 309 308 308 309 311 313 314 315 316 317 317 316 315 316 318 318 319 319 319 319 319 319 318 315 314 313 313 313 312 312 310 303 296 293 293 293 292 292 291 292 292 292 293 294 295 297 298 298 298 297 295 294 294 295 296 295 295 295 295
314 314 314 314 313 313 312 311 311 310 310 310 310 310 310 311 311 311 311 311 311 310 310 310 310 309 309 309 309 309 309 310 311 310 311 312 313 315 316 317 317 317 318 317 317 318 318 317 315 314 314 313 313 313 312 311 309 304 297 293 293 292 292 291 291 292 292 292 293 293 294 295 296 296 295 295 294 294 294 295 296 296 295 295 294
314 314 313 314 314 313 312 311 310 310 310 310 310 310 310 311 311 311 311 311 311 311 310 310 310 309 309 308 308 308 308 308 308 308 310 311 313 314 315 315 315 315 315 315 316 317 317 315 314 314 313 313 313 313 312 311 309 305 298 293 292 292 292 292 291 292 292 292 292 292 293 293 294 294 293 294 294 294 294 295 296 296 296 295 294
314 314 313 313 313 313 312 310 310 310 309 309 309 310 310 310 311 311 311 311 311 311 310 310 310 309 308 307 307 308 307 308 308 309 310 310 311 311 312 313 315 315 315 315 316 316 316 315 314 314 313 313 313 312 311 310 308 305 299 294 292 292 292 292 291 291 292 291 292 292 292 292 292 292 293 294 294 294 294 295 296 297 296 295 293
313 313 313 313 313 312 312 311 310 310 309 309 309 309 310 310 310 311 311 311 311 311 310 310 309 309 308 308 309 309 309 309 310 311 311 312 312 312 313 314 316 316 316 315 315 315 315 314 314 314 313 313 312 311 310 309 307 303 298 294 292 292 292 291 291 291 291 291 291 291 291 290 291 291 292 293 293 293 294 296 297 297 296 294 293
313 313 313 313 312 312 312 312 311 310 309 309 309 309 309 310 310 311 311 311 311 310 310 309 309 309 309 309 310 311 311 311 312 314 314 315 315 315 315 315 316 315 315 315 315 314 314 314 313 312 312 312 312 311 309 308 305 301 297 293 292 291 291 291 290 290 290 290 290 290 289 289 289 290 291 292 293 293 294 296 297 297 295 294 293
313 313 313 312 312 312 311 311 311 310 310 309 309 309 309 309 310 310 311 311 311 310 310 309 308 309 309 309 309 310 311 311 312 313 314 314 314 315 315 315 315 315 314 314 314 314 313 313 312 312 311 310 310 310 309 307 303 300 296 292 291 290 290 290 290 289 289 289 289 289 289 289 289 289 290 291 292 293 294 295 295 295 294 294 292
313 312 312 312 312 311 311 311 311 310 310 309 309 309 309 309 310 310 310 310 310 310 309 309 308 308 308 308 308 309 310 311 311 312 312 312 312 313 313 313 314 314 314 313 313 312 312 311 311 310 309 308 308 309 308 305 301 297 294 291 290 290 290 289 289 289 289 288 288 288 288 288 288 288 289 290 291 292 292 292 293 293 293 293 292
313 312 312 312 311 311 311 310 310 309 309 309 309 309 309 309 310 310 310 310 309 309 309 309 308 308 307 308 308 309 310 311 311 311 311 311 311 312 312 313 313 313 312 312 311 310 310 309 308 307 307 307 307 308 307 303 298 295 292 290 290 289 289 289 289 288 288 288 288 288 288 288 288 288 288 289 289 290 290 291 291 292 292 292 292
313 312 312 312 311 311 310 310 309 309 309 309 309 309 309 309 310 310 309 309 308 307 307 308 308 307 306 306 307 308 310 310 310 310 310 310 310 310 310 311 311 310 310 309 309 308 307 306 305 304 305 305 306 307 306 302 296 292 291 290 289 289 288 288 288 288 288 288 288 288 288 288 288 287 287 287 287 288 289 290 290 291 291 291 291
312 312 312 311 311 310 309 309 309 309 309 309 309 309 309 309 309 309 309 308 307 306 306 307 307 307 306 306 306 307 308 308 309 310 310 310 310 310 309 309 309 308 308 307 306 306 306 305 304 304 304 305 305 306 305 301 295 291 290 289 289 289 288 288 288 287 287 287 287 287 287 287 287 287 286 286 286 286 287 287 288 288 289 289 290
312 312 311 310 310 309 308 308 308 308 309 309 309 309 309 309 309 308 308 308 307 306 306 306 307 307 307 306 306 306 307 308 308 309 309 309 309 308 308 307 307 306 306 305 305 305 305 305 305 304 304 304 304 303 302 300 295 291 290 289 289 289 288 288 288 287 287 287 287 287 286 286 286 286 286 286 285 286 286 286 286 286 287 287 288
312 311 310 309 308 308 308 308 308 308 308 308 309 309 309 309 308 308 307 307 307 307 307 307 307 307 307 307 307 307 307 307 308 308 307 307 307 306 306 306 305 305 305 305 305 305 304 304 303 303 302 301 300 299 298 296 294 292 290 289 289 289 288 288 287 287 287 287 286 286 286 286 286 285 285 285 285 285 285 285 285 285 286 286 286
310 309 308 308 307 307 307 307 307 308 308 308 308 307 307 308 308 307 306 306 307 307 307 307 307 307 307 307 307 307 307 307 306 306 306 306 305 305 305 304 304 304 304 304 303 303 303 302 302 301 300 299 299 297 295 294 292 291 290 290 289 289 288 288 288 287 287 286 286 286 286 285 285 285 284 284 284 284 284 284 284 285 285 285 286
308 308 307 307 307 307 307 307 307 307 307 307 307 306 306 306 306 306 306 306 307 307 307 307 307 307 307 307 306 306 306 306 305 305 305 305 304 304 304 303 303 303 303 302 302 301 301 301 300 299 299 298 298 296 295 294 293 292 291 290 290 289 289 288 288 287 287 286 286 286 286 285 285 284 284 284 284 283 283 283 283 284 284 284 285
308 307 307 307 306 306 306 307 307 307 307 306 306 305 305 305 305 305 306 306 307 307 307 307 307 306 306 306 306 305 305 304 304 304 304 303 303 303 302 302 302 302 301 301 301 300 300 299 299 298 298 297 296 296 295 294 294 293 292 291 290 290 289 288 288 287 287 287 286 286 285 285 285 284 284 283 283 283 283 283 283 283 283 283 283
306 306 306 306 306 306 306 306 307 307 307 306 305 306 306 306 306 306 306 306 306 306 306 306 306 305 305 305 305 304 304 303 303 303 302 302 301 301 301 300 300 299 299 299 298 298 298 297 297 297 297 296 296 296 295 295 294 294 293 292 292 291 290 289 288 288 287 287 286 286 285 285 284 284 283 283 283 282 282 282 282 282 282 282 282
305 305 306 306 306 306 306 307 307 308 308 307 307 307 307 307 307 306 306 306 305 305 305 305 305 305 304 304 303 303 303 302 301 301 300 300 299 299 298 298 297 296 296 296 295 295 294 294 294 294 293 293 293 293 293 293 293 293 292 292 292 291 291 290 289 289 288 287 287 286 285 285 284 283 283 283 282 282 282 282 282 281 281 281 281
305 305 306 306 306 307 307 307 308 308 307 307 308 308 307 307 306 306 306 306 305 305 305 304 304 303 303 303 302 302 301 300 299 298 297 297 296 296 295 295 294 293 293 292 292 291 291 290 290 290 290 289 289 289 289 289 289 289 289 289 289 289 289 288 288 288 288 287 287 286 286 285 284 283 283 282 282 282 281 281 281 281 281 280 280
306 306 306 306 306 307 307 307 307 307 307 307 307 307 306 306 306 305 306 306 305 305 304 303 303 302 302 301 300 299 298 297 296 295 294 294 293 293 293 292 292 291 291 290 290 289 289 289 288 288 288 288 287 287 287 287 287 287 287 287 287 286 287 286 286 286 286 286 286 286 285 285 284 283 283 282 281 281 281 280 280 280 280 279 279
306 306 306 306 306 307 307 307 307 307 306 306 306 306 305 305 305 304 304 304 304 304 303 302 301 300 299 298 296 295 294 294 293 292 292 292 291 291 291 291 290 290 289 289 289 288 288 288 288 287 287 287 287 286 286 286 286 286 285 285 285 285 285 285 285 285 285 285 285 285 284 284 283 283 282 281 280 279 279 279 279 278 278 278 278
306 306 306 306 306 306 306 306 306 305 305 305 305 305 305 304 303 303 302 302 301 301 301 300 298 297 296 294 293 292 292 291 291 290 290 290 290 290 289 289 289 288 288 288 288 287 287 287 287 287 286 286 286 286 286 285 285 285 285 284 284 284 284 284 284 284 284 284 283 283 283 282 282 281 280 279 279 278 278 278 277 277 277 277 277
305 305 305 305 305 305 305 305 305 305 305 304 304 304 304 303 302 301 301 300 299 298 297 296 295 294 293 292 291 290 290 289 289 289 289 289 289 288 288 288 288 288 287 287 287 287 286 286 286 286 286 286 285 285 285 285 285 284 284 284 284 284 283 283 283 283 283 283 283 282 282 282 281 280 278 278 277 277 277 277 277 277 277 277 277
304 304 304 304 305 305 305 305 304 304 304 304 303 303 302 302 301 300 298 297 296 294 293 292 292 291 290 289 289 289 289 288 288 288 288 288 288 288 288 287 287 287 287 287 286 286 286 286 286 286 285 285 285 285 284 284 284 284 284 284 283 283 283 283 283 282 282 282 282 282 282 281 281 279 278 277 277 276 276 276 276 276 276 276 276
303 303 303 304 304 304 304 304 304 303 303 302 302 301 300 299 298 296 295 293 292 291 290 290 289 289 288 288 288 288 288 288 288 288 288 288 287 287 287 287 287 286 286 286 286 286 286 285 285 285 285 285 284 284 284 284 284 283 283 283 283 282 282 282 282 281 281 281 281 281 281 281 280 279 278 277 276 276 275 275 275 276 276 276 276
303 303 302 302 302 302 302 302 302 302 301 300 299 298 296 295 294 292 291 290 290 289 289 288 288 288 287 287 287 287 287 287 287 287 287 287 287 286 286 286 286 286 286 286 286 285 285 285 285 284 284 284 284 283 283 283 283 282 282 282 282 281 281 281 281 281 280 280 280 280 280 280 279 278 277 276 275 275 275 275 275 275 275 276 276
302 301 301 301 301 301 301 300 300 299 298 297 295 293 292 291 290 289 289 288 288 288 287 287 287 287 287 287 287 287 287 287 287 286 286 286 286 286 286 286 286 286 286 285 285 284 284 284 283 283 283 283 283 282 282 282 282 282 281 281 281 281 281 280 280 280 280 280 280 279 279 279 278 277 276 275 275 275 275 275 275 275 275 275 275
300 300 300 299 299 299 298 298 297 295 294 292 291 289 289 288 288 287 287 287 287 287 287 287 286 286 286 286 286 286 286 286 286 286 286 286 286 286 286 286 285 285 284 284 284 283 283 283 283 283 282 282 282 282 282 282 281 281 281 281 281 280 280 280 280 280 279 279 279 279 279 278 278 277 276 275 275 275 275 274 274 274 274 274 274
299 299 298 298 297 296 295 293 292 290 289 289 288 287 287 287 287 286 286 286 286 286 286 286 286 286 286 286 286 286 286 286 286 286 286 286 285 285 285 284 284 283 283 283 283 282 282 282 282 282 282 282 282 282 281 281 281 281 281 280 280 280 280 280 279 279 279 279 278 278 278 277 277 276 275 275 275 275 275 274 274 274 274 273 273
297 297 296 295 293 291 290 289 288 288 287 287 287 287 286 286 286 286 286 286 285 285 285 285 285 285 285 285 285 285 285 285 285 285 284 284 284 284 283 283 283 283 282 282 282 282 282 282 282 282 282 282 281 281 281 281 280 280 280 280 280 280 279 279 279 279 278 278 278 277 277 276 276 276 275 275 275 275 275 274 274 273 273 273 272
293 292 291 290 288 288 287 287 286 286 286 286 286 286 286 285 285 285 285 285 285 285 284 284 284 284 284 284 284 284 284 284 284 284 284 283 283 283 283 283 282 282 282 282 282 282 282 282 282 282 282 281 281 281 280 280 280 280 279 279 279 279 279 278 278 278 277 277 277 277 276 276 276 275 275 275 275 275 274 274 273 273 272 272 272
288 288 287 287 287 286 286 286 286 286 285 285 285 285 285 285 284 284 284 284 284 283 283 284 284 284 284 284 285 285 284 284 284 284 283 283 283 283 282 282 282 282 282 282 282 282 282 281 281 281 281 281 281 280 280 280 279 279 279 279 278 278 278 278 277 277 277 277 277 276 276 276 276 275 275 275 275 274 274 273 273 272 271 271 271
286 286 286 286 286 286 285 285 285 285 284 284 284 284 284 283 283 283 283 283 283 284 284 285 285 285 285 285 285 284 284 284 283 283 283 283 282 282 282 282 282 281 281 281 281 281 281 281 281 281 280 280 280 279 279 279 279 278 278 278 278 278 277 277 277 277 276 276 276 276 276 275 275 275 275 275 274 274 273 273 272 272 271 270 270
285 285 285 284 284 284 284 284 284 283 283 283 283 283 283 283 283 284 284 285 285 286 286 286 285 285 285 284 284 283 283 283 283 282 282 282 282 282 281 281 281 281 281 281 280 280 280 280 280 280 279 279 279 279 278 278 278 278 278 277 277 277 277 277 277 276 276 276 276 275 275 275 275 275 274 274 273 273 273 272 272 271 270 270 270
283 283 283 283 283 283 283 283 283 283 283 283 284 284 285 285 285 286 286 286 286 285 285 285 284 284 283 283 283 283 283 282 282 282 282 281 281 281 281 281 280 280 280 280 280 280 279 279 279 279 279 278 278 278 277 277 277 277 277 277 277 277 277 277 276 276 276 276 275 275 275 275 274 274 274 273 273 273 272 272 271 270 270 270 270
282 282 282 283 283 283 283 284 284 285 285 285 286 286 286 286 286 285 285 285 284 284 284 283 283 283 283 283 282 282 282 282 281 281 281 281 280 280 280 280 280 280 279 279 279 279 279 278 278 278 278 277 277 277 277 277 277 277 277 277 276 276 276 276 276 276 275 275 275 275 274 274 274 274 274 273 273 272 272 271 271 270 269 269 269
Wind_Speed
35 36 36 37 37 37 37 37 37 37 38 39 39 39 38 38 38 38 38 36 35 35 34 33 32 31 31 30 30 30 29 30 30 30 32 32 33 34 33 34 34 34 35 35 37 38 37 40 38 32 34 34 31 33 33 31 32 33 33 32 28 28 30 28 28 29 28 25 23 23 23 21 19 17 16 14 13 15 17 19 21 23 24 24 24
32 33 33 34 35 35 35 36 37 38 38 38 38 37 37 37 37 37 37 35 34 34 32 32 30 29 29 29 29 28 28 29 29 30 31 31 31 31 32 33 33 33 35 35 35 35 36 43 42 34 33 35 30 26 27 29 33 32 30 29 27 27 29 29 29 30 29 27 23 21 21 20 18 16 14 13 13 15 17 20 22 24 24 24 24
29 30 31 32 33 33 35 36 36 37 37 37 37 37 36 36 36 36 35 34 33 32 31 30 29 28 29 28 28 28 28 29 29 29 30 30 30 29 29 32 33 33 33 32 31 31 35 42 42 38 37 34 27 25 26 29 32 31 30 29 27 27 29 30 30 29 28 26 24 21 19 18 17 14 12 12 14 16 18 21 23 23 24 24 24
29 29 30 31 32 33 34 35 36 36 37 37 36 36 35 35 34 34 33 32 32 31 30 29 28 28 29 29 29 28 27 28 28 29 30 29 28 26 26 29 31 32 33 34 33 34 37 40 40 41 39 30 27 29 29 29 31 32 32 30 27 27 30 30 29 28 27 25 23 20 18 16 15 13 13 14 15 17 19 21 22 23 24 24 23
30 31 31 31 32 33 34 34 35 36 36 36 35 34 33 32 32 32 32 31 31 30 29 29 29 29 29 29 28 27 26 27 28 28 27 28 28 27 27 28 29 31 35 38 38 36 38 40 40 40 37 31 31 32 30 31 34 34 33 31 28 28 30 30 29 28 27 25 22 20 18 16 14 14 15 16 16 18 19 21 22 23 24 24 23
29 31 32 32 33 33 34 34 34 34 33 33 32 31 31 31 31 31 31 31 30 30 30 30 29 28 28 27 26 25 24 24 26 26 24 25 27 28 31 34 35 32 31 33 34 34 38 39 39 41 39 36 36 32 26 29 32 31 31 30 28 29 31 31 29 28 27 25 23 21 18 16 16 17 17 17 18 19 20 21 22 22 23 23 23
26 28 30 32 33 33 34 34 33 32 31 30 29 29 29 30 30 30 30 31 30 30 30 28 27 26 25 24 23 22 21 21 23 24 24 24 24 25 30 34 34 30 29 32 33 33 34 34 38 43 40 38 40 33 24 24 26 26 28 28 28 31 33 32 30 29 29 28 27 24 20 18 19 20 19 18 19 20 20 20 21 22 23 23 22
25 26 27 28 28 29 30 31 31 30 29 28 28 28 29 29 29 29 28 28 28 28 27 27 25 24 23 22 21 20 20 21 21 21 21 21 21 23 25 26 26 26 28 30 29 29 30 32 38 41 38 38 39 30 23 24 25 25 27 27 28 32 34 32 31 32 31 29 27 24 21 22 22 21 20 20 21 21 19 19 21 22 23 22 21
22 22 22 22 22 22 23 25 26 27 27 27 27 26 26 26 25 25 25 25 25 25 25 24 23 22 22 21 21 22 23 24 22 19 19 20 23 25 22 20 22 25 26 26 26 28 31 33 33 33 33 35 32 25 24 26 26 26 26 26 29 33 34 33 33 32 31 29 27 25 24 24 23 22 22 22 22 20 18 20 22 22 22 22 21
17 18 18 18 18 19 20 21 22 22 23 23 23 22 22 22 22 22 22 22 22 22 22 21 19 19 19 19 21 22 23 23 22 22 24 25 25 24 21 20 23 25 25 25 26 27 27 28 27 26 29 31 27 24 25 26 26 27 25 25 30 33 34 34 33 32 31 30 29 28 27 27 25 24 24 23 22 20 19 21 21 21 21 21 21
14 15 15 15 17 17 18 18 18 19 19 19 19 19 19 20 20 20 20 20 21 21 21 21 20 20 21 21 21 23 23 23 23 23 23 22 21 22 24 26 27 26 25 25 25 23 22 23 24 25 27 28 25 24 25 25 26 26 24 26 30 32 32 33 33 32 32 32 31 30 30 28 26 25 24 24 23 21 20 20 21 20 21 21 22
12 12 13 14 15 15 15 16 16 17 17 17 18 18 18 19 19 19 20 20 21 22 23 23 23 23 25 26 26 27 27 27 26 24 22 22 23 26 27 28 28 28 28 27 26 24 22 21 20 22 23 24 23 23 25 26 25 25 26 29 30 32 33 32 32 33 33 33 33 33 30 28 26 26 26 25 23 21 20 20 20 20 20 21 21
11 11 12 13 14 14 14 15 16 16 17 17 18 18 19 19 19 20 20 21 22 23 24 24 24 25 27 28 29 28 27 27 28 26 25 25 26 26 25 24 26 27 26 25 24 24 22 19 18 19 19 18 19 22 26 26 25 26 29 30 31 33 34 34 33 33 32 32 32 32 29 28 28 28 27 25 23 21 21 20 19 18 20 20 20
13 13 13 14 15 16 16 17 17 18 18 18 19 20 20 20 20 20 21 21 22 22 22 23 24 25 26 27 28 26 24 24 25 24 24 24 24 25 24 23 23 22 21 20 20 19 18 17 17 16 13 11 13 18 24 25 25 27 31 32 33 34 35 35 34 34 32 31 31 30 29 28 29 28 26 24 24 23 22 20 18 18 19 20 21
16 16 17 17 17 18 18 19 20 20 20 20 21 21 21 21 21 21 21 21 21 21 21 22 22 23 23 24 24 23 22 21 21 22 22 22 22 24 25 24 22 21 21 20 19 17 16 16 16 13 11 12 14 18 23 23 24 28 32 34 34 34 35 35 35 34 34 33 32 31 30 29 29 29 27 27 26 24 22 20 19 19 20 20 22
21 21 21 21 20 20 21 21 22 22 22 23 23 22 22 22 22 22 22 22 21 21 21 21 21 21 21 21 21 22 22 22 23 24 24 24 24 23 24 25 22 20 20 20 20 19 18 17 16 14 14 15 16 19 22 23 24 28 33 35 35 35 35 35 35 35 35 34 34 34 32 31 31 30 30 29 27 24 23 22 21 20 21 22 23
26 25 25 25 24 24 24 24 24 25 25 25 25 24 23 23 23 22 23 22 22 22 21 20 19 19 19 19 20 20 21 22 23 23 24 24 23 22 23 23 23 23 23 22 20 19 17 15 14 14 14 15 16 19 22 23 24 28 33 36 36 36 36 36 36 37 36 36 36 36 36 35 33 32 31 30 28 25 24 23 22 22 23 24 24
28 28 28 27 27 27 28 27 27 27 27 27 27 26 25 24 24 24 23 23 22 21 20 18 17 16 16 15 15 16 16 18 20 21 21 23 23 23 23 23 23 24 24 23 20 17 14 12 12 12 13 15 17 19 21 22 24 28 32 36 37 37 37 36 36 37 37 38 38 38 39 38 35 33 32 31 29 27 26 25 24 25 25 25 25
29 28 28 28 29 29 28 28 28 28 28 27 27 26 25 25 25 24 23 22 20 19 18 16 15 14 13 12 12 11 12 13 15 16 18 20 21 21 21 21 21 22 21 20 17 14 12 11 11 12 13 15 17 18 20 22 24 27 30 35 37 37 36 35 36 38 38 39 39 39 39 38 37 35 34 32 31 29 27 27 27 28 27 26 25
29 28 27 28 30 30 29 28 28 28 27 27 26 25 25 25 24 24 22 20 19 18 17 16 14 13 12 11 11 11 11 11 12 12 14 15 16 17 18 19 19 18 16 15 13 11 11 11 11 12 13 15 17 18 19 20 23 26 29 33 36 36 34 35 37 38 39 39 39 39 39 38 37 37 35 34 33 31 30 30 30 30 28 27 27
30 29 28 29 30 31 31 29 27 26 26 25 25 25 25 24 24 23 21 20 19 18 17 15 14 13 14 13 13 14 14 14 14 15 16 16 16 17 17 16 16 15 14 14 13 12 12 13 13 13 15 16 17 18 19 20 22 25 28 30 32 33 34 36 37 38 39 39 39 39 39 38 38 37 36 35 34 34 34 34 34 31 29 28 29
33 33 31 30 30 31 31 29 27 26 25 25 25 24 24 24 23 22 21 21 19 18 17 16 16 16 16 16 16 17 17 17 18 18 18 19 18 17 16 16 16 16 17 17 16 16 17 17 18 18 19 20 20 20 20 20 21 24 26 27 29 31 34 36 37 38 39 39 39 39 39 38 38 38 37 36 36 37 37 37 35 32 30 30 31
35 35 33 32 32 32 31 29 27 26 25 24 24 24 24 23 22 22 21 20 20 19 18 18 18 18 18 18 18 18 18 18 18 19 19 19 18 17 16 17 18 18 18 19 19 20 20 21 22 23 23 23 22 21 21 21 21 22 23 24 27 30 33 35 36 38 38 38 38 39 38 37 37 37 38 38 38 38 38 37 35 33 33 34 34
38 37 35 34 33 32 30 28 27 26 25 25 25 25 24 22 21 22 22 21 21 21 20 19 19 19 18 19 18 18 17 17 18 18 18 18 18 17 16 16 17 18 19 20 21 22 23 23 23 23 21 20 20 20 21 21 21 21 21 23 27 30 32 34 35 36 37 38 38 39 38 38 38 37 37 36 37 37 37 37 37 37 38 38 37
39 38 36 35 33 32 30 28 27 26 25 25 25 24 24 23 23 23 24 23 22 21 20 19 19 18 18 18 18 18 18 18 18 18 19 19 18 18 18 18 19 20 21 22 22 22 21 21 19 18 17 17 18 20 21 21 21 21 21 23 26 28 30 31 32 34 36 37 37 38 39 39 38 37 36 36 36 37 37 38 39 40 40 40 39
40 38 37 35 33 31 30 28 27 26 26 25 25 24 24 24 24 24 24 23 21 20 19 19 19 19 18 18 18 19 20 20 20 20 19 19 18 18 19 19 19 19 18 18 17 17 16 16 15 15 16 17 18 19 20 21 21 21 22 23 24 26 27 28 29 31 33 34 36 37 38 38 38 38 38 38 38 39 38 39 40 40 40 39 39
40 38 36 34 32 30 29 28 27 27 26 26 26 26 26 25 24 24 23 23 22 21 21 21 21 21 21 20 20 21 20 20 20 19 18 17 16 16 15 14 13 12 12 12 12 12 13 13 14 15 15 16 17 18 19 20 20 21 22 23 23 24 25 26 27 29 30 31 33 34 35 36 37 39 39 39 39 39 38 39 40 39 38 38 39
39 37 34 32 31 30 29 29 28 27 27 27 27 27 27 26 25 23 22 22 21 22 22 22 22 22 21 20 20 19 17 16 15 14 13 12 11 10 9 9 8 8 8 9 9 10 11 12 13 14 14 15 16 17 18 19 19 20 21 22 23 24 25 26 27 28 29 29 30 31 32 33 34 36 37 38 38 37 37 37 38 38 38 37 39
36 35 33 32 31 30 30 29 29 29 29 29 28 27 26 25 24 23 22 21 21 21 21 20 20 18 17 16 16 14 13 12 11 10 9 9 8 8 7 7 6 6 7 7 8 9 9 10 11 12 12 13 14 15 17 18 19 20 20 21 23 24 25 26 27 27 27 28 29 29 30 31 32 33 34 35 35 35 35 36 36 37 37 38 39
35 34 33 32 32 31 31 31 31 31 30 29 29 28 26 24 23 22 22 22 22 21 20 19 18 16 15 14 14 13 12 11 10 10 9 8 7 7 6 6 6 6 7 7 8 8 8 8 9 10 11 11 12 13 15 16 17 19 19 20 21 22 24 25 25 25 25 26 27 27 28 29 31 31 32 33 33 33 34 34 35 36 37 38 40
34 34 34 33 32 32 32 32 32 31 29 28 29 29 28 27 25 24 23 22 20 19 18 17 17 16 16 15 14 13 12 11 10 9 8 7 6 6 5 5 6 6 7 7 7 8 8 8 9 10 11 11 12 13 14 16 17 18 19 20 21 22 23 23 23 24 25 25 26 26 27 28 29 30 30 31 31 32 33 33 34 35 36 38 39
33 33 33 32 32 32 32 31 31 30 29 29 29 30 29 29 27 26 24 22 20 19 19 18 18 17 16 15 14 12 12 11 9 9 8 7 6 5 5 6 7 7 7 7 8 8 9 9 10 11 12 12 12 13 14 15 16 17 18 19 20 21 22 22 23 24 25 26 26 26 27 27 28 28 29 30 30 31 31 32 33 34 35 36 38
31 31 31 31 31 31 30 30 30 30 30 30 30 29 28 27 26 26 24 23 21 20 20 19 18 17 16 15 14 13 12 11 10 9 8 6 5 5 6 7 7 7 7 7 8 9 9 9 10 11 11 11 12 13 14 15 16 17 18 19 19 20 21 22 22 24 25 25 26 27 27 27 27 28 28 29 29 29 30 31 31 32 34 35 36
29 28 28 29 29 29 29 29 29 30 30 29 28 27 25 23 23 23 23 23 23 22 21 20 18 17 16 15 14 13 12 11 10 9 7 6 5 5 6 7 8 8 8 8 8 8 9 9 9 10 10 11 12 13 14 15 16 17 18 19 20 20 21 22 23 24 24 25 26 27 27 27 27 28 28 28 28 28 29 30 30 31 32 33 34
28 26 25 26 27 27 28 28 28 28 28 27 26 25 24 24 22 21 21 21 22 22 22 21 19 18 17 16 15 14 13 11 10 8 6 6 5 5 6 7 9 9 9 8 8 8 9 9 10 11 11 12 13 14 15 15 16 18 19 20 21 22 22 23 24 25 25 26 27 27 28 28 28 28 28 28 28 28 28 29 29 29 30 31 32
27 26 25 25 26 26 27 27 27 27 27 27 27 26 26 25 24 23 21 21 21 21 21 21 20 19 18 16 15 13 12 10 8 7 6 5 5 6 7 8 9 9 10 10 10 10 10 11 12 12 13 13 14 15 16 17 18 19 20 21 22 23 24 25 25 26 27 28 28 28 29 29 29 28 29 29 29 29 29 30 29 29 29 30 31
27 27 26 26 26 26 27 27 27 27 28 28 28 28 28 27 25 24 23 22 21 20 20 20 19 18 17 15 14 12 10 8 7 6 5 5 6 6 7 7 8 9 10 11 12 11 12 13 14 14 15 15 16 17 19 20 21 22 23 23 24 25 26 26 27 28 28 29 29 29 29 30 29 29 29 30 31 31 31 31 30 30 30 30 30
27 26 25 26 27 27 28 29 29 29 29 29 29 29 28 27 26 25 24 23 22 21 20 19 18 16 15 13 12 10 9 8 7 6 6 6 6 7 7 8 9 10 11 12 13 13 14 15 16 17 17 18 19 20 21 22 23 24 25 26 26 27 28 28 29 29 30 30 31 31 31 31 31 30 29 30 31 32 32 32 31 31 31 30 30
27 25 25 26 27 28 29 30 31 31 30 30 29 28 27 27 26 26 24 23 21 20 19 17 16 15 13 12 11 10 8 7 7 6 7 7 8 8 9 10 11 11 12 14 15 15 16 17 18 19 19 20 21 22 23 24 25 25 27 28 28 29 30 30 31 31 31 32 32 32 33 33 32 31 30 30 31 32 31 31 30 30 31 31 30
28 28 27 28 28 29 29 30 30 30 29 29 28 27 26 26 25 24 23 21 20 19 17 16 14 14 13 12 11 9 8 8 7 7 7 8 9 10 11 12 12 13 15 16 17 18 19 19 20 20 21 22 23 24 25 26 27 28 29 29 30 31 31 31 31 32 32 33 33 33 33 33 33 32 31 31 30 30 30 30 30 29 30 30 30
29 29 29 29 29 29 29 29 29 28 28 27 26 26 25 24 23 22 21 19 18 17 16 15 14 13 12 11 10 9 8 8 8 8 9 9 11 11 12 13 14 16 17 18 19 20 20 21 21 22 22 23 25 25 26 27 28 29 30 30 31 31 31 32 32 33 33 34 34 34 35 34 33 32 32 31 29 29 29 29 30 30 29 29 29
28 29 29 29 29 29 29 29 28 27 26 25 24 23 23 22 21 20 19 18 17 16 15 14 13 12 11 10 9 8 8 8 8 9 10 11 12 13 14 16 17 18 20 20 21 22 22 22 23 23 23 24 25 26 27 28 28 29 30 31 31 32 32 33 33 33 34 35 35 35 35 34 33 32 31 30 29 29 29 29 29 29 29 29 29
27 28 28 29 28 28 27 27 27 26 25 24 23 22 21 20 19 18 17 16 15 14 13 12 11 10 10 9 8 8 8 9 9 10 12 13 14 16 17 19 20 21 22 23 23 23 23 23 23 24 24 25 26 27 28 29 29 30 31 32 32 33 33 33 33 33 34 34 34 34 34 34 33 31 30 29 28 28 28 28 28 28 28 28 28
27 28 28 29 28 27 26 26 26 25 24 23 22 21 20 18 17 16 15 13 12 12 11 10 9 8 8 7 7 8 9 10 11 13 14 16 17 19 20 21 22 23 23 24 24 24 24 24 25 25 26 27 28 28 29 30 30 31 32 32 32 32 32 32 32 32 32 32 32 32 32 31 31 30 29 28 27 28 28 28 28 28 27 27 27
27 28 28 28 28 27 26 25 24 23 22 21 20 19 18 16 15 13 12 11 10 9 8 7 7 6 7 7 8 9 11 12 14 15 17 18 20 21 22 23 23 24 24 24 24 25 25 26 26 27 27 28 28 29 29 29 30 30 30 30 31 30 30 29 29 29 29 29 29 30 30 29 29 29 28 27 27 28 28 28 27 27 27 26 26
26 27 27 27 27 26 25 24 23 21 20 19 17 16 15 14 13 12 10 9 8 7 6 6 6 7 8 9 11 12 14 15 17 18 20 21 22 23 24 24 24 25 25 25 25 26 26 27 28 28 28 28 28 28 28 28 28 28 28 28 28 27 26 26 26 26 27 27 28 28 29 29 28 27 26 26 26 27 27 27 27 27 26 26 25
25 25 25 25 24 23 22 21 20 19 18 17 16 14 13 12 11 9 8 7 6 6 6 7 8 10 12 13 15 16 17 19 20 21 22 23 24 24 25 25 26 26 26 26 27 27 27 28 28 28 28 28 28 27 27 26 26 25 25 24 24 23 23 23 24 24 25 26 27 27 28 27 27 26 25 25 26 26 26 27 26 26 26 25 24
24 23 23 22 21 20 20 19 18 17 16 15 14 12 11 9 8 7 6 6 7 8 10 11 13 14 16 17 18 19 20 21 22 23 24 24 25 26 26 27 27 27 27 27 27 27 27 27 27 27 27 27 27 26 25 24 23 22 21 21 21 21 21 21 22 22 23 24 25 26 26 26 26 25 25 25 25 25 25 26 25 25 25 24 22
22 21 21 20 19 18 18 17 16 15 13 12 10 9 8 7 6 7 8 9 11 12 14 15 16 17 18 19 20 21 22 23 24 25 25 26 27 27 27 28 28 28 27 27 26 26 26 26 26 26 25 25 24 23 22 21 20 19 19 19 19 19 19 20 21 21 22 24 24 24 25 25 25 24 24 24 24 24 24 24 25 24 24 22 21
20 19 18 18 17 15 14 13 12 10 9 8 7 6 7 8 9 10 12 13 14 15 16 17 18 19 20 21 22 23 24 25 26 26 27 27 28 28 28 28 28 28 27 26 26 25 25 25 24 23 22 22 20 20 19 18 18 18 18 17 18 18 18 19 20 21 22 23 24 24 24 24 24 23 23 23 23 23 23 23 22 22 21 21 19
17 16 15 14 12 11 10 9 8 7 6 7 7 8 10 11 12 13 14 15 16 17 19 20 21 22 23 24 25 25 25 26 26 27 27 28 28 28 28 28 27 27 26 26 25 24 23 22 21 20 20 19 18 18 17 17 17 17 17 17 17 17 18 18 19 20 20 21 23 23 24 23 22 22 22 22 22 22 22 21 20 20 19 18 17
Wind_Direction
250 251 252 253 253 253 254 255 256 257 258 259 261 262 263 264 266 267 268 269 270 271 271 272 272 273 273 272 273 272 271 271 270 270 268 268 270 270 271 271 269 271 269 269 268 264 264 262 256 263 269 260 265 277 274 266 261 257 256 256 251 243 240 240 240 242 245 246 246 243 243 246 249 253 260 268 279 289 295 299 300 302 302 299 299
247 248 249 249 249 248 249 251 252 254 256 257 259 260 261 263 265 267 268 269 270 271 271 272 272 273 272 271 271 270 270 270 270 270 269 268 270 271 272 270 268 269 267 266 267 264 264 262 257 260 265 260 265 275 270 264 261 258 259 260 255 243 237 236 234 236 240 242 243 241 240 242 246 251 260 269 280 288 293 297 299 301 300 296 296
246 246 246 245 245 246 246 248 250 252 253 254 256 258 260 262 264 266 267 268 270 270 271 272 273 273 271 270 269 268 268 269 269 270 269 268 269 269 270 270 267 268 267 263 261 262 265 265 259 259 259 257 264 272 269 266 262 261 266 266 258 244 235 234 234 234 238 239 239 239 238 239 243 250 261 272 282 287 292 295 297 299 297 293 295
246 246 245 244 245 245 245 246 248 250 251 252 254 256 258 261 263 265 266 266 267 268 269 271 271 271 270 268 269 267 267 267 267 269 268 267 268 267 268 270 267 266 270 267 261 262 267 266 260 258 259 262 271 272 269 264 259 261 265 260 252 240 232 232 233 233 236 237 236 236 234 234 239 250 264 274 281 287 291 294 296 295 292 290 293
247 247 248 248 248 248 247 248 248 250 251 253 256 258 260 262 262 263 264 264 265 266 267 267 266 267 267 266 267 267 267 266 265 266 268 267 266 263 265 270 266 261 264 265 264 264 266 262 257 259 266 271 270 267 264 261 258 261 264 259 248 235 229 230 231 233 234 234 234 234 231 232 240 253 264 271 278 285 290 292 292 289 286 288 292
247 247 248 249 250 250 251 251 252 253 255 257 259 260 260 261 261 261 262 262 264 264 264 264 263 262 263 264 266 266 266 266 265 266 268 270 268 265 265 266 263 262 267 271 273 272 268 265 262 267 273 270 264 262 262 263 264 265 266 260 246 231 226 228 229 231 232 230 231 230 228 234 246 254 261 268 276 283 286 287 286 283 283 286 289
248 247 248 249 250 251 251 252 253 255 256 257 257 257 257 257 257 258 259 260 261 262 261 261 259 259 260 261 262 262 261 263 266 265 265 268 269 269 270 267 264 269 276 280 280 276 269 267 268 271 273 264 257 259 263 268 271 270 267 260 242 226 224 227 229 230 230 228 226 226 230 238 245 251 257 264 272 279 282 282 280 279 281 284 287
248 248 249 250 250 251 251 251 251 251 251 251 250 250 250 251 252 253 255 256 257 257 256 255 253 253 253 253 255 259 260 259 258 261 264 264 263 265 268 268 271 277 277 277 280 278 276 276 277 278 275 262 255 258 267 277 278 274 267 255 234 223 224 227 228 229 230 228 226 228 234 239 243 250 255 260 270 278 278 275 275 276 279 282 286
245 246 247 247 247 246 243 243 242 242 242 243 243 244 245 246 247 248 249 250 251 252 251 249 247 246 247 247 248 253 259 257 253 255 260 260 262 264 263 266 276 279 276 276 279 281 283 285 287 287 276 263 257 259 269 278 281 275 265 246 227 222 226 229 230 231 231 229 228 231 235 240 246 251 255 262 272 275 270 269 272 275 276 280 285
238 238 238 237 234 232 230 231 231 232 234 235 235 236 237 239 241 242 243 245 248 251 251 248 246 247 248 248 247 249 254 253 250 252 256 259 263 264 262 266 270 269 271 279 284 285 285 285 288 287 275 264 259 259 267 277 280 273 258 236 223 222 226 230 233 234 233 232 233 235 239 244 249 253 259 268 271 266 264 267 271 272 275 279 284
229 230 228 226 225 224 224 224 225 226 226 227 229 230 231 234 237 240 243 245 249 251 252 248 242 239 241 242 242 241 243 246 247 250 253 256 258 260 260 260 260 260 266 277 284 284 280 279 282 282 274 266 260 260 267 276 276 265 244 225 222 227 232 236 237 237 236 235 235 238 242 246 249 255 262 268 267 262 263 265 266 270 275 279 283
222 221 220 221 223 224 224 223 222 223 224 225 227 228 230 233 235 239 242 245 247 249 250 249 244 239 238 239 240 240 241 244 248 251 252 250 252 256 256 253 255 260 265 270 275 277 273 272 277 280 278 270 262 262 268 271 269 256 236 222 221 229 237 242 243 243 241 239 238 239 242 245 249 257 265 268 266 262 259 259 262 269 274 278 281
226 226 225 226 226 224 224 224 223 223 224 225 226 228 230 232 234 237 239 241 244 246 247 249 248 246 245 246 248 248 245 244 246 249 250 248 249 252 253 255 261 265 264 265 271 272 267 265 271 280 283 274 262 261 266 267 261 248 234 225 224 228 235 240 243 245 246 246 245 244 244 247 254 264 271 269 261 255 252 254 261 268 273 278 281
234 235 235 234 232 229 227 225 225 224 224 226 227 229 231 232 234 236 237 239 241 243 245 246 246 247 247 247 247 246 244 243 243 244 244 246 248 249 253 261 266 263 261 263 268 268 264 264 273 279 278 265 259 265 270 270 261 245 234 229 228 230 234 237 241 243 244 245 245 245 247 252 262 269 269 259 251 249 249 253 259 265 271 276 281
242 242 239 237 235 233 231 229 228 227 227 228 229 231 232 233 234 235 236 238 240 241 243 243 244 244 244 243 241 238 238 240 240 239 239 244 247 246 249 256 260 260 260 260 261 263 264 266 269 262 242 237 253 267 274 275 263 247 237 232 232 234 236 238 240 242 243 244 244 245 246 252 261 264 259 250 247 246 246 250 256 262 270 278 284
248 247 244 241 238 236 235 234 232 231 230 231 232 232 233 234 234 234 235 237 238 240 241 242 244 244 243 241 239 236 236 236 237 238 239 243 246 245 247 251 254 257 258 257 256 259 261 261 257 246 236 242 259 271 278 277 264 248 239 236 236 237 239 240 242 243 245 246 247 247 246 248 254 256 251 246 244 244 245 249 255 264 272 279 284
248 247 246 243 241 240 239 237 236 234 233 233 233 233 234 235 235 234 234 235 236 238 240 242 244 245 245 245 245 243 240 239 240 240 238 239 241 242 245 250 253 256 259 259 258 259 258 256 250 245 247 257 268 276 279 276 264 250 241 238 238 240 241 242 244 247 249 250 250 249 248 248 250 249 246 245 244 243 245 249 256 266 273 277 282
245 244 244 242 242 242 241 240 240 238 237 236 236 235 235 235 235 234 233 234 234 236 238 239 241 242 243 243 244 244 242 240 239 238 237 238 239 241 246 250 253 256 259 261 261 258 254 251 250 256 266 273 277 277 277 273 263 250 242 240 241 242 244 245 248 251 252 253 253 252 251 251 251 249 247 247 247 244 245 250 257 266 272 275 280
242 242 243 243 244 245 244 244 243 242 242 242 241 240 239 236 236 235 233 233 234 236 237 236 236 238 238 237 237 236 232 230 231 234 235 238 240 242 244 247 252 256 258 258 257 253 248 252 262 271 275 276 275 274 272 268 260 249 243 242 243 245 248 250 252 254 255 256 257 257 257 256 256 254 253 252 250 247 247 251 257 265 271 275 276
240 240 242 245 246 247 248 247 247 245 245 244 244 244 243 240 238 236 235 235 235 236 236 233 231 233 233 232 231 229 225 221 223 229 234 237 241 243 244 248 254 256 253 248 247 248 253 262 269 271 269 268 268 269 268 265 258 250 243 243 245 249 252 253 254 256 258 259 260 260 260 259 258 257 256 255 254 252 251 253 259 266 270 273 275
238 239 242 246 248 248 249 249 248 246 244 243 243 243 243 243 240 238 235 233 232 233 233 231 228 227 227 226 224 223 222 220 221 226 232 236 238 241 244 248 249 245 242 242 245 252 258 262 264 264 264 265 266 267 265 261 256 250 245 245 248 252 253 255 256 258 259 260 260 261 260 259 259 259 258 258 257 256 256 257 261 264 268 272 275
239 240 243 247 249 249 249 249 247 243 240 239 240 241 241 241 239 237 234 230 229 228 227 227 225 224 225 225 225 225 223 221 221 225 230 234 237 240 240 240 239 239 241 245 248 251 255 258 262 265 267 268 269 268 264 258 253 250 248 249 251 253 254 256 257 258 260 261 262 262 261 261 261 262 262 261 260 260 260 261 264 267 270 272 273
241 240 244 249 250 249 250 249 245 239 236 235 235 236 237 236 234 234 232 228 226 223 220 220 222 224 224 225 226 226 225 224 225 227 231 235 238 239 236 234 236 239 244 248 252 255 259 263 266 269 270 270 269 267 262 255 251 250 251 252 254 255 256 257 258 259 261 262 263 264 265 265 265 265 265 264 265 265 266 268 271 272 272 271 271
240 240 245 250 249 249 249 246 240 234 231 230 230 230 231 230 228 228 227 224 222 220 217 217 220 223 225 224 224 224 224 224 225 228 231 235 238 238 238 239 242 246 251 256 260 263 266 269 271 271 270 269 268 265 259 255 252 251 252 254 256 257 258 259 260 261 262 263 265 266 267 269 269 270 270 270 270 270 271 272 273 273 273 273 273
240 242 247 249 248 247 245 240 235 230 227 226 226 225 226 225 222 222 222 220 218 216 215 216 219 222 225 224 221 221 222 223 225 227 231 234 237 240 242 244 248 252 257 262 267 269 271 273 273 272 269 268 267 265 260 255 253 253 254 256 258 260 262 263 265 266 267 268 269 270 271 272 274 275 274 273 271 271 272 272 272 272 273 275 277
242 245 248 248 245 243 241 236 231 227 224 223 222 222 223 224 222 220 219 217 214 211 212 215 217 221 225 225 221 220 223 224 226 229 232 236 241 245 248 251 255 260 264 268 271 273 274 275 275 273 269 267 266 265 261 257 255 258 261 263 264 265 267 269 270 270 271 272 273 274 275 276 277 277 276 274 272 272 272 272 272 273 275 278 280
244 246 246 244 240 238 236 233 228 224 222 221 219 217 218 220 221 220 217 215 211 209 211 215 218 222 225 225 222 222 224 228 230 233 237 242 246 251 254 256 259 262 266 270 274 276 277 279 279 277 273 270 268 265 262 260 259 262 267 270 272 273 274 275 275 275 276 277 278 278 279 279 279 279 278 277 275 274 274 275 275 276 278 279 279
244 243 241 238 236 233 230 228 225 223 222 220 218 216 215 215 216 216 215 214 213 212 213 215 218 220 222 223 224 225 227 231 233 235 237 238 240 242 246 250 253 257 263 269 275 279 280 280 280 279 277 275 273 270 267 266 265 267 271 274 277 278 278 278 278 279 280 282 282 282 283 282 282 282 282 281 281 280 279 279 279 280 280 279 277
238 237 235 232 230 227 224 223 222 221 220 218 215 213 212 212 212 211 210 211 211 212 212 213 214 216 217 218 218 218 220 220 219 218 220 222 226 232 240 247 256 265 273 277 278 280 282 282 282 281 279 278 278 275 273 272 271 271 273 274 276 277 278 278 279 279 281 281 281 282 282 283 283 284 285 285 286 286 285 284 283 282 281 279 278
233 232 231 228 226 223 221 219 219 219 219 216 211 207 204 205 206 205 206 207 207 207 206 205 205 205 204 204 203 202 202 204 205 208 213 218 225 235 246 256 267 277 282 286 289 290 291 290 287 285 282 281 280 277 275 274 273 273 273 273 274 275 277 278 280 281 281 280 280 280 280 281 282 283 284 285 287 288 288 287 286 284 282 280 281
230 229 227 225 222 221 219 218 217 215 214 211 208 204 200 199 199 200 201 201 199 198 196 194 193 192 192 194 195 196 198 201 204 207 211 216 223 234 248 262 275 285 289 292 295 294 293 291 287 285 284 282 279 276 274 273 273 273 273 273 274 275 276 277 279 280 279 279 279 279 279 280 281 283 284 286 286 287 287 287 287 286 285 284 283
227 225 224 222 220 218 217 216 214 210 207 205 204 203 201 199 195 194 194 191 188 186 186 186 188 189 190 192 193 194 197 199 202 204 206 210 219 234 256 271 280 287 289 291 292 291 290 288 285 283 283 283 281 280 279 278 277 277 276 276 275 275 275 276 276 277 277 278 279 279 280 280 281 282 284 285 286 287 287 287 287 287 287 286 285
222 222 221 219 217 215 213 211 208 205 203 202 200 200 201 199 195 190 186 183 181 182 183 185 187 187 189 191 192 193 196 198 198 200 202 206 219 241 261 272 278 283 285 286 287 287 286 285 284 284 285 286 285 284 284 284 283 282 282 282 281 280 279 278 277 277 277 278 279 279 280 280 281 282 283 283 285 286 287 287 287 287 287 287 287
217 217 218 217 215 211 207 205 203 200 199 199 197 195 194 191 189 187 185 182 182 182 184 185 186 187 189 191 192 193 195 196 198 199 200 207 225 244 258 267 274 278 280 280 281 284 284 285 285 286 287 288 289 289 290 289 288 288 288 288 288 287 286 285 285 284 283 282 282 283 283 283 283 283 283 284 285 286 286 286 287 287 288 288 289
211 210 211 212 211 207 203 200 197 195 194 192 189 186 183 180 180 182 186 189 187 186 185 185 186 187 188 189 191 193 194 195 196 198 202 214 230 246 259 269 275 277 278 280 282 284 286 287 287 288 291 292 293 294 295 294 294 294 295 295 295 295 295 294 294 293 293 291 290 290 289 287 285 285 284 285 286 286 286 286 286 288 289 290 291
206 202 201 203 202 201 198 194 191 190 188 184 182 181 179 179 178 180 185 189 189 188 188 186 185 186 186 186 189 191 191 192 194 198 208 223 240 254 264 272 277 281 284 287 289 290 291 291 291 293 295 297 298 298 298 299 299 299 299 299 299 299 299 299 299 299 298 298 297 296 294 292 291 290 288 287 286 286 286 286 286 288 290 291 293
200 197 195 194 193 192 191 188 185 183 182 181 181 181 180 180 180 180 182 185 185 187 187 186 184 184 184 184 186 187 187 190 195 202 216 230 245 257 264 270 276 282 287 290 293 295 295 295 296 297 298 299 299 299 299 300 300 300 301 301 301 301 301 301 302 301 301 300 300 299 298 296 295 294 292 291 290 289 288 288 288 288 289 290 292
195 192 192 191 189 187 186 184 181 181 181 182 183 182 182 181 181 181 182 182 182 183 184 183 183 183 183 183 184 185 188 195 202 214 228 240 251 259 265 270 275 280 284 288 290 293 294 294 296 297 298 298 299 299 299 300 301 301 302 302 302 302 302 302 303 303 302 302 302 301 299 298 297 294 292 290 290 290 290 290 289 288 287 288 289
189 187 189 190 188 186 186 185 183 183 183 183 183 182 182 182 181 180 181 181 180 180 180 181 182 181 181 183 185 187 193 203 213 227 240 250 259 265 270 273 277 280 284 287 289 291 292 293 295 296 297 299 299 300 301 301 301 302 302 302 302 302 302 302 302 302 302 301 301 300 299 298 297 294 291 289 288 289 290 290 290 289 288 287 286
186 184 185 187 187 186 186 186 186 184 184 183 182 180 180 180 179 179 178 178 178 177 178 179 181 180 181 186 191 195 202 211 224 239 250 259 266 271 275 278 282 285 287 289 290 291 292 293 294 295 297 298 299 300 300 301 301 300 300 300 300 299 300 300 300 300 300 300 300 300 299 298 297 295 292 290 289 289 288 288 288 287 286 286 286
186 184 184 185 186 186 185 185 185 184 182 181 179 177 176 176 176 176 176 176 177 178 179 180 182 184 187 192 198 204 212 223 236 250 260 267 272 276 279 283 285 287 287 288 288 288 289 290 292 293 295 296 296 297 298 298 298 298 298 298 298 298 299 299 299 300 300 300 300 300 300 300 299 297 295 293 292 289 287 287 286 285 284 284 285
186 185 185 184 185 185 184 183 181 179 177 176 175 173 173 173 174 174 174 175 177 180 182 183 185 189 194 199 206 214 224 236 248 258 265 271 276 279 281 283 283 283 284 284 284 285 287 288 290 292 293 294 295 295 295 296 296 297 297 297 297 297 298 299 299 299 300 299 299 300 300 300 300 299 297 296 294 290 288 287 286 285 284 283 283
186 186 185 183 181 180 179 178 175 173 172 171 170 169 170 171 172 172 173 175 178 181 185 189 193 196 203 210 218 228 240 251 260 266 271 275 277 280 281 281 282 282 282 282 283 285 286 288 289 291 293 293 294 294 295 296 296 296 296 296 296 297 298 299 299 299 299 299 299 300 300 300 300 300 299 298 295 292 289 287 286 284 283 282 282
184 184 182 179 175 173 172 171 170 168 168 168 167 167 167 169 171 173 174 178 183 187 192 198 203 209 218 227 237 249 258 266 272 275 278 279 280 281 281 281 282 282 283 283 285 286 287 289 291 292 293 293 294 295 296 296 296 296 296 296 297 297 298 298 299 299 299 299 300 300 301 301 301 301 301 300 296 292 289 287 285 284 283 281 281
180 179 177 173 169 167 166 165 165 165 165 165 165 166 167 169 173 176 178 182 188 194 201 209 219 230 242 253 262 268 273 278 280 281 282 283 283 282 283 283 282 282 283 284 286 288 289 291 292 293 294 294 295 295 295 295 295 295 296 296 297 297 298 300 300 301 302 303 303 303 303 303 302 302 302 301 297 293 289 286 285 283 281 281 281
173 171 169 166 164 162 161 161 161 161 162 163 164 167 169 171 173 176 180 186 193 203 214 228 242 255 264 271 276 280 282 284 285 285 285 284 284 283 283 283 283 283 284 285 287 288 290 291 292 293 294 294 294 294 295 295 295 295 295 296 297 299 301 302 304 305 306 306 306 306 305 304 304 303 302 300 297 293 289 286 284 282 281 281 281
163 162 161 160 159 159 159 159 159 160 162 163 164 166 169 170 173 177 183 193 207 223 240 254 265 272 277 280 283 285 286 285 285 284 284 283 283 283 283 283 284 285 285 286 287 288 289 291 292 293 293 294 294 295 295 295 295 295 295 296 298 300 303 304 306 307 308 307 306 306 305 305 304 304 303 300 297 294 290 287 284 282 281 281 282
157 157 156 155 156 157 158 158 159 160 161 161 162 164 166 170 176 186 202 222 241 255 264 271 275 278 281 283 284 284 284 284 283 283 283 282 282 283 283 284 284 284 285 286 287 288 290 291 292 292 293 294 294 295 295 295 295 296 297 298 300 302 304 306 308 309 309 307 306 306 305 305 305 304 303 301 298 295 292 288 285 283 282 282 282
153 154 153 153 154 156 156 156 156 157 157 159 162 167 175 190 208 227 243 255 262 268 272 276 279 281 282 283 283 283 283 283 283 282 282 283 283 283 283 283 283 284 285 286 287 288 289 290 291 291 292 292 293 294 295 295 296 297 298 300 302 304 307 309 311 312 312 311 310 309 308 306 305 304 302 301 297 294 291 289 287 286 285 284 283
149 149 150 150 150 151 152 153 155 157 163 172 186 202 220 236 247 255 261 266 270 274 277 279 280 281 281 281 282 282 283 283 283 283 283 283 283 283 283 283 283 284 285 286 287 288 288 289 289 290 290 291 292 293 294 294 295 297 299 301 303 306 309 312 314 315 315 314 314 313 311 309 306 304 302 300 296 292 290 288 286 286 285 284 282
145 145 147 147 149 152 158 163 172 185 202 217 232 243 251 258 263 267 271 274 276 277 278 279 280 281 281 282 282 283 283 283 283 283 283 282 282 282 283 283 283 284 285 286 286 287 286 286 286 286 287 287 288 289 290 292 295 297 299 302 305 308 311 314 315 316 316 315 315 313 311 309 307 305 302 299 294 290 287 285 284 284 283 281 277